Weather History for Pompano Beach, FL

Change the Weather History Date:

Thursday, April 4, 2013

  Actual Average Record
Temperature  
Mean Temperature 75 °F -  
Max Temperature 84 °F 83 °F 93 °F (1980)
Min Temperature 68 °F 65 °F 48 °F (1951)
Cooling Degree Days 10    
Growing Degree Days 25 (Base 50)    
Moisture  
Dew Point 70 °F    
Average Humidity 86    
Maximum Humidity 100    
Minimum Humidity 71    
Precipitation  
Precipitation 1.16 in - - ()
Sea Level Pressure  
Sea Level Pressure 30.00 in    
Wind  
Wind Speed 14 mph (SSE)    
Max Wind Speed 31 mph    
Max Gust Speed 59 mph    
Visibility 8 miles    
Events Rain    
Averages and records for this station are not official NWS values.
T = Trace of Precipitation, MM = Missing Value Source: NWS Daily Summary

Daily Weather History Graph

Daily Weather History Graph

Search for Another Location

Airport:

Trip Planner

Search our weather history database for the weather conditions in past years. The results will help you decide how hot, cold, wet, or windy it might be!

Date:

Astronomy

Apr. 04, 2013 Rise Set
Actual Time 7:08 AM EDT 7:38 PM EDT
Civil Twilight 6:44 AM EDT 8:02 PM EDT
Nautical Twilight 6:17 AM EDT 8:29 PM EDT
Astronomical Twilight 5:49 AM EDT 8:57 PM EDT
Moon 3:01 AM EDT (4/4) 2:25 PM EDT (4/4)
Length of Visible Light 13h 17m
Length of Day
12h 30m
Waning Crescent, 34% of the Moon is Illuminated
Apr 4
Waning Crescent
Apr 10
New
Apr 18
First Quarter
Apr 25
Full
May 2
Last Quarter

Hourly Weather History & Observations

Time (EDT) Temp. Heat Index Dew Point Humidity Pressure Visibility Wind Dir Wind Speed Gust Speed Precip Events Conditions
12:53 AM 75.0 °F - 71.1 °F 87% 30.06 in 10.0 mi SE 8.1 mph - N/A   Clear
1:53 AM 75.0 °F - 70.0 °F 84% 30.05 in 10.0 mi SE 11.5 mph - N/A   Partly Cloudy
2:53 AM 75.0 °F - 70.0 °F 84% 30.02 in 10.0 mi SE 16.1 mph - N/A   Clear
3:53 AM 75.0 °F - 70.0 °F 84% 30.00 in 10.0 mi SE 13.8 mph - N/A   Scattered Clouds
4:53 AM 75.0 °F - 69.1 °F 82% 30.00 in 10.0 mi SSE 13.8 mph - N/A   Clear
5:53 AM 75.0 °F - 70.0 °F 84% 30.01 in 10.0 mi SSE 12.7 mph - N/A   Partly Cloudy
6:53 AM 75.0 °F - 69.1 °F 82% 30.02 in 10.0 mi SSE 12.7 mph - N/A   Partly Cloudy
7:53 AM 75.9 °F - 70.0 °F 82% 30.04 in 10.0 mi SSE 10.4 mph - N/A   Scattered Clouds
8:53 AM 77.0 °F - 70.0 °F 79% 30.02 in 10.0 mi SSE 13.8 mph 20.7 mph N/A   Partly Cloudy
9:53 AM 79.0 °F - 70.0 °F 74% 30.00 in 10.0 mi SSE 17.3 mph 24.2 mph N/A   Partly Cloudy
10:53 AM 80.1 °F 83.6 °F 71.1 °F 74% 30.01 in 10.0 mi SSE 18.4 mph 25.3 mph N/A   Partly Cloudy
11:53 AM 81.0 °F 84.9 °F 71.1 °F 72% 30.02 in 10.0 mi South 17.3 mph 25.3 mph N/A   Scattered Clouds
12:00 PM 80.6 °F 84.6 °F 71.6 °F 74% 30.01 in 10.0 mi South 17.3 mph 23.0 mph N/A   Mostly Cloudy
12:53 PM 81.0 °F 84.9 °F 71.1 °F 72% 30.02 in 10.0 mi South 17.3 mph 24.2 mph N/A   Mostly Cloudy
1:06 PM 80.6 °F 84.6 °F 71.6 °F 74% 30.01 in 10.0 mi SSE 17.3 mph 26.5 mph N/A   Scattered Clouds
1:53 PM 82.0 °F 86.7 °F 72.0 °F 71% 30.01 in 10.0 mi SSE 13.8 mph - N/A   Clear
2:53 PM 82.0 °F 86.7 °F 72.0 °F 71% 29.99 in 10.0 mi SSE 19.6 mph 24.2 mph N/A   Mostly Cloudy
3:53 PM 80.1 °F 83.8 °F 72.0 °F 76% 29.95 in 10.0 mi SSE 17.3 mph 24.2 mph N/A   Mostly Cloudy
4:53 PM 78.1 °F - 73.0 °F 84% 29.96 in 10.0 mi SSE 12.7 mph 23.0 mph N/A   Overcast
5:34 PM 69.8 °F - 68.0 °F 94% 29.98 in 2.0 mi WNW 31.1 mph 40.3 mph 0.10 in Rain Heavy Rain
5:36 PM 69.8 °F - 68.0 °F 94% 29.99 in 1.2 mi WNW 25.3 mph 40.3 mph 0.18 in Rain Heavy Rain
5:42 PM 68.0 °F - 66.2 °F 94% 30.00 in 0.8 mi WNW 24.2 mph 58.7 mph 0.38 in Rain Heavy Rain
5:53 PM 69.1 °F - 68.0 °F 96% 30.00 in 0.8 mi WNW 15.0 mph 18.4 mph 0.77 in Rain Heavy Rain
5:56 PM 69.8 °F - 68.0 °F 94% 29.99 in 1.2 mi WNW 17.3 mph - 0.00 in Rain Light Rain
6:00 PM 69.8 °F - 68.0 °F 94% 30.01 in 3.0 mi West 16.1 mph - 0.04 in Rain Heavy Rain
6:08 PM 69.8 °F - 68.0 °F 94% 30.01 in 2.0 mi NW 12.7 mph - 0.13 in Rain Heavy Rain
6:19 PM 69.8 °F - 69.8 °F 100% 30.01 in 2.5 mi NNW 15.0 mph - 0.22 in Rain Heavy Rain
6:26 PM 69.8 °F - 69.8 °F 100% 30.01 in 3.0 mi NNW 13.8 mph - 0.27 in Rain Heavy Rain
6:53 PM 69.1 °F - 69.1 °F 100% 30.01 in 8.0 mi NNW 12.7 mph - 0.31 in Rain Light Rain
7:53 PM 69.1 °F - 69.1 °F 100% 29.95 in 10.0 mi East 8.1 mph - 0.07 in   Scattered Clouds
8:31 PM 71.6 °F - 69.8 °F 94% 29.94 in 10.0 mi ENE 5.8 mph - 0.00 in   Scattered Clouds
8:53 PM 71.1 °F - 70.0 °F 96% 29.94 in 10.0 mi East 9.2 mph - 0.00 in   Mostly Cloudy
9:00 PM 71.6 °F - 69.8 °F 94% 29.93 in 10.0 mi East 9.2 mph - N/A   Partly Cloudy
9:53 PM 73.0 °F - 71.1 °F 93% 29.94 in 10.0 mi ESE 6.9 mph - 0.00 in Rain Light Rain
10:53 PM 73.9 °F - 71.1 °F 91% 29.98 in 10.0 mi SE 6.9 mph - 0.00 in   Clear
11:53 PM 73.9 °F - 72.0 °F 93% 29.99 in 10.0 mi SSE 5.8 mph - 0.01 in Rain Light Rain